Weather Roundup
Issued by NWS

Home | Current Version | Previous Version | Graphics & Text | Print | Product List | Glossary Off
Versions: 1 2 3 4 5 6 7 8 9 10 11 12 13 14 15 16 17 18 19 20 21 22 23 24 25 26 27 28 29 30 31 32 33 34 35 36 37 38 39 40 41 42 43 44 45 46 47 48 49 50

000
NZUS93 KARX 290910
HRRWXR

CURRENT HOURLY OBSERVATIONS ACROSS
MUCH OF THE UPPER MISSISSIPPI VALLEY
NATIONAL WEATHER SERVICE LA CROSSE WI
400 AM CDT FRI AUG 29 2014


...SOUTHEAST MINNESOTA...


CITY           SKY/WX    TMP DP  RH WIND       PRES   REMARKS
ROCHESTER      CLOUDY    68  66  93 S9        29.87F FOG
ROCHESTER/MAYO CLOUDY    67  67  97 SE9       29.86F
WINONA         CLOUDY    63  63 100 SE6       29.90R THUNDER
AUSTIN         LGT RAIN  68  66  94 S6        29.85F
ALBERT LEA     CLOUDY    68  68 100 S9G16     29.83F
DODGE CENTER   CLOUDY    70  66  88 S9        29.85F FOG
PRESTON        DRIZZLE   66  67 100 CALM      29.89S
OWATONNA       CLOUDY    70  66  88 S5        29.83F
FARIBAULT      CLOUDY    72  66  83 SE5       29.83S
$$

...ELSEWHERE IN MINNESOTA...


CITY           SKY/WX    TMP DP  RH WIND       PRES   REMARKS
MINNEAPOLIS    CLOUDY    67  66  97 SE10      29.82S
INTNL FALLS    CLOUDY    59  58  96 SE3       29.85F
DULUTH         CLOUDY    61  57  87 E7        29.87F
RED WING       RAIN      66  64  94 SE7       29.85R
REDWOOD FALLS  CLOUDY    68  67  96 SE10      29.77F FOG
MANKATO        CLOUDY    75  66  73 S7        29.81S
WORTHINGTON    MOCLDY    72  70  94 S13       29.80F
FAIRMONT       CLOUDY    66  64  94 S14       29.82F
$$

...SOUTHWEST WISCONSIN...


CITY           SKY/WX    TMP DP  RH WIND       PRES   REMARKS
LA CROSSE      CLOUDY    66  62  87 E8        29.89F
PRAIRIE DU CHI CLOUDY    69  66  89 CALM      29.90F
BOSCOBEL       TSTM      69  65  86 S6        29.93R VSB 1
LONE ROCK      CLOUDY    69  63  81 CALM      29.93S
PLATTEVILLE    CLOUDY    66  65  97 CALM      29.94S
FORT MC COY    CLOUDY    62  59  92 SE3       29.94R
CAMP DOUGLAS   CLOUDY    60  60 100 SE3       29.94S
VIROQUA        CLOUDY    64  64 100 S5        29.94R
WIS DELLS      MOCLDY    65  61  87 S5        29.94S
$$

...ELSEWHERE IN WISCONSIN...


CITY           SKY/WX    TMP DP  RH WIND       PRES   REMARKS
MILWAUKEE      PTCLDY    70  66  87 S10       29.97S
MADISON        MOCLDY    66  62  87 S7        29.94F
GREEN BAY      RAIN      61  60  97 E8        29.98F
EAU CLAIRE     HVY RAIN  59  58  96 SE8       29.90F FOG
BLACK RVR FLS  CLOUDY    59  59 100 E3        29.93S
MEDFORD        CLOUDY    55  55  97 E6        29.95F
WAUSAU         CLOUDY    58  57  97 SE6       29.96S
WIS RAPIDS     CLOUDY    60  58  92 E6        29.96F
MARSHFIELD     CLOUDY    58  57  97 E7        29.95F
RICE LAKE      CLOUDY    62  57  86 SE12G17   29.91S
$$

...NORTHEAST IOWA...


CITY           SKY/WX    TMP DP  RH WIND       PRES   REMARKS
WATERLOO       CLOUDY    68  67  96 S10       29.86F
DUBUQUE        CLOUDY    67  67 100 S10       29.93F FOG
DECORAH        CLOUDY    68  68 100 S7        29.89F FOG
MASON CITY     CLOUDY    68  68 100 S9        29.88S
CHARLES CITY   LGT RAIN  68  68 100 S9        29.88F
OELWEIN        CLOUDY    68  68 100 S8        29.90F
$$

...ELSEWHERE IN IOWA...


CITY           SKY/WX    TMP DP  RH WIND       PRES   REMARKS
DES MOINES     CLOUDY    69  66  90 SE7       29.86F
IOWA CITY      PTCLDY    68  68 100 SE7       29.91F
FORT DODGE     MOCLDY    68  66  94 S16G22    29.86S
MARSHALLTOWN   CLOUDY    67  66  97 SE7       29.86F
CEDAR RAPIDS   CLOUDY    69  69 100 SW3       29.92S
$$

...NORTHERN ILLINOIS...


CITY           SKY/WX    TMP DP  RH WIND       PRES   REMARKS
CHICAGO-OHARE  CLOUDY    71  63  75 S7        29.97S
DUPAGE         CLOUDY    70  66  87 S7        29.97F
CHICAGO-MIDWAY CLOUDY    73  66  78 S7        29.97F
MOLINE         MOCLDY    70  67  90 SE3       29.92F
ROCKFORD       MOCLDY    67  65  93 S6        29.97S FOG
STERLING       MOCLDY    66  64  94 CALM      29.95S
PEORIA         PTCLDY    71  67  87 S5        29.95F
$$

NOTE: "FAIR" INDICATES FEW OR NO CLOUDS BELOW 12,000 FEET WITH NO
SIGNIFICANT WEATHER AND/OR OBSTRUCTIONS TO VISIBILITY. WIND
SPEEDS ARE IN MILES-PER-HOUR.



USA.gov is the U.S. government's official web portal to all federal, state and local government web resources and services.